| time (UTC) | temp C | wind direction | speed KPH | gust KPH | rain 1hr cm | rain 24hr cm | rain mn cm | humidity % | barometer mb |
| 20260504234527 | 17 | 13 | 19.3 | 29.0 | 0.00 | 0.00 | 0.00 | 40 | 1010.8 |
| 20260504233024 | 17 | 349 | 16.1 | 32.2 | 0.00 | 0.00 | 0.00 | 40 | 1010.7 |
| 20260504231525 | 18 | 21 | 16.1 | 27.4 | 0.00 | 0.00 | 0.00 | 41 | 1010.7 |
| 20260504230023 | 18 | 28 | 17.7 | 30.6 | 0.00 | 0.00 | 0.00 | 39 | 1010.6 |
| 20260504224521 | 18 | 22 | 20.9 | 29.0 | 0.00 | 0.00 | 0.00 | 38 | 1010.7 |
| 20260504223020 | 18 | 351 | 17.7 | 27.4 | 0.00 | 0.00 | 0.00 | 40 | 1010.7 |
| 20260504221526 | 18 | 9 | 16.1 | 27.4 | 0.00 | 0.00 | 0.00 | 37 | 1010.8 |
| 20260504220016 | 18 | 350 | 16.1 | 25.7 | 0.00 | 0.00 | 0.00 | 38 | 1010.9 |
| 20260504214526 | 18 | 345 | 16.1 | 27.4 | 0.00 | 0.00 | 0.00 | 40 | 1011.1 |
| 20260504213029 | 18 | 352 | 14.5 | 25.7 | 0.00 | 0.00 | 0.00 | 39 | 1011.3 |
| 20260504211534 | 18 | 340 | 12.9 | 32.2 | 0.00 | 0.00 | 0.00 | 38 | 1011.4 |
| 20260504210026 | 18 | 5 | 17.7 | 22.5 | 0.00 | 0.00 | 0.00 | 41 | 1011.6 |
| 20260504204524 | 17 | 350 | 12.9 | 22.5 | 0.00 | 0.00 | 0.00 | 44 | 1011.5 |
| 20260504203021 | 17 | 17 | 14.5 | 24.1 | 0.00 | 0.00 | 0.00 | 40 | 1011.7 |
| 20260504200021 | 17 | 59 | 9.7 | 16.1 | 0.00 | 0.00 | 0.00 | 41 | 1011.9 |
| 20260504193026 | 16 | 352 | 8.0 | 14.5 | 0.00 | 0.00 | 0.00 | 43 | 1012.3 |
| 20260504191528 | 16 | 9 | 4.8 | 16.1 | 0.00 | 0.00 | 0.00 | 45 | 1012.6 |
| 20260504190028 | 16 | 5 | 11.3 | 17.7 | 0.00 | 0.00 | 0.00 | 44 | 1012.7 |
| 20260504184541 | 15 | 34 | 11.3 | 16.1 | 0.00 | 0.00 | 0.00 | 46 | 1012.8 |
| 20260504181524 | 15 | 351 | 8.0 | 16.1 | 0.00 | 0.00 | 0.00 | 49 | 1013.1 |
| 20260504174520 | 13 | 26 | 14.5 | 19.3 | 0.00 | 0.00 | 0.00 | 53 | 1013.4 |
| 20260504173017 | 13 | 352 | 9.7 | 16.1 | 0.00 | 0.00 | 0.00 | 52 | 1013.6 |
| 20260504171513 | 13 | 13 | 9.7 | 17.7 | 0.00 | 0.00 | 0.00 | 50 | 1013.6 |
| 20260504081515 | 11 | 142 | 6.4 | 17.7 | 0.00 | 0.00 | 0.00 | 51 | 1012.4 |
| 20260504050014 | 12 | 130 | 16.1 | 22.5 | 0.00 | 0.00 | 0.00 | 47 | 1012.3 |
| 20260504044527 | 13 | 127 | 17.7 | 22.5 | 0.00 | 0.00 | 0.00 | 46 | 1012.3 |
| 20260504043029 | 14 | 113 | 11.3 | 19.3 | 0.00 | 0.00 | 0.00 | 44 | 1012.3 |
| 20260504041532 | 15 | 182 | 6.4 | 14.5 | 0.00 | 0.00 | 0.00 | 41 | 1012.1 |
| 20260504040022 | 16 | 146 | 8.0 | 11.3 | 0.00 | 0.00 | 0.00 | 39 | 1011.9 |
| 20260504034520 | 16 | 199 | 1.6 | 8.0 | 0.00 | 0.00 | 0.00 | 37 | 1011.8 |
| 20260504033016 | 17 | 263 | 4.8 | 6.4 | 0.00 | 0.00 | 0.00 | 35 | 1011.6 |
| 20260504031513 | 17 | 249 | 4.8 | 8.0 | 0.00 | 0.00 | 0.00 | 34 | 1011.5 |
| 20260504030009 | 18 | 251 | 1.6 | 3.2 | 0.00 | 0.00 | 0.00 | 34 | 1011.4 |
| 20260504024528 | 18 | 229 | 1.6 | 4.8 | 0.00 | 0.00 | 0.00 | 32 | 1011.2 |
| 20260504023027 | 19 | 283 | 3.2 | 4.8 | 0.00 | 0.00 | 0.00 | 31 | 1011.3 |
| 20260504021530 | 20 | 251 | 1.6 | 9.7 | 0.00 | 0.00 | 0.00 | 30 | 1011.1 |
| 20260504020022 | 20 | 315 | 4.8 | 11.3 | 0.00 | 0.00 | 0.00 | 29 | 1011.1 |
| 20260504014527 | 21 | 281 | 3.2 | 9.7 | 0.00 | 0.00 | 0.00 | 29 | 1011.2 |
| 20260504013019 | 22 | 280 | 4.8 | 9.7 | 0.00 | 0.00 | 0.00 | 27 | 1011.3 |
| 20260504011517 | 22 | 254 | 6.4 | 12.9 | 0.00 | 0.00 | 0.00 | 26 | 1011.4 |
| 20260504010028 | 22 | 234 | 4.8 | 12.9 | 0.00 | 0.00 | 0.00 | 24 | 1011.6 |
| 20260504004529 | 22 | 247 | 8.0 | 19.3 | 0.00 | 0.00 | 0.00 | 23 | 1011.7 |
| 20260504003032 | 23 | 297 | 6.4 | 17.7 | 0.00 | 0.00 | 0.00 | 24 | 1011.8 |
| 20260504001531 | 23 | 249 | 9.7 | 12.9 | 0.00 | 0.00 | 0.00 | 23 | 1012.0 |
| 20260504000028 | 23 | 232 | 4.8 | 12.9 | 0.00 | 0.00 | 0.00 | 21 | 1012.1 |